| time (UTC) | temp F | wind direction | speed knots | gust knots | rain 1hr in | rain 24hr in | rain mn in | humidity % | barometer mb |
| 20260507112546 | 55 | 0 | 0.0 | 1.7 | 0.00 | 0.00 | 0.00 | 70 | 1015.2 |
| 20260507111542 | 56 | 0.0 | 1.7 | 0.00 | 0.00 | 0.00 | 71 | 1015.2 | |
| 20260507110539 | 55 | 0 | 0.0 | 1.7 | 0.00 | 0.00 | 0.00 | 71 | 1015.2 |
| 20260507105536 | 55 | 248 | 0.0 | 1.7 | 0.00 | 0.00 | 0.00 | 71 | 1015.2 |
| 20260507104533 | 55 | 0.0 | 1.7 | 0.00 | 0.00 | 0.00 | 74 | 1015.2 | |
| 20260507103549 | 54 | 31 | 0.9 | 1.7 | 0.00 | 0.00 | 0.00 | 74 | 1015.2 |
| 20260507102526 | 53 | 45 | 0.9 | 1.7 | 0.00 | 0.00 | 0.00 | 75 | 1015.1 |
| 20260507101523 | 53 | 338 | 0.0 | 1.7 | 0.00 | 0.00 | 0.00 | 74 | 1015.1 |
| 20260507100521 | 53 | 36 | 0.9 | 3.5 | 0.00 | 0.00 | 0.00 | 76 | 1015.0 |
| 20260507095517 | 54 | 23 | 0.0 | 1.7 | 0.00 | 0.00 | 0.00 | 74 | 1015.0 |
| 20260507094615 | 53 | 85 | 0.0 | 1.7 | 0.00 | 0.00 | 0.00 | 77 | 1015.0 |
| 20260507093611 | 53 | 59 | 0.9 | 1.7 | 0.00 | 0.00 | 0.00 | 75 | 1014.9 |
| 20260507092608 | 54 | 45 | 0.0 | 1.7 | 0.00 | 0.00 | 0.00 | 73 | 1014.8 |
| 20260507091605 | 53 | 68 | 0.0 | 1.7 | 0.00 | 0.00 | 0.00 | 78 | 1014.7 |
| 20260507090602 | 52 | 23 | 0.9 | 3.5 | 0.00 | 0.00 | 0.00 | 75 | 1014.7 |
| 20260507085559 | 52 | 45 | 0.9 | 3.5 | 0.00 | 0.00 | 0.00 | 75 | 1014.6 |
| 20260507084556 | 52 | 45 | 0.0 | 1.7 | 0.00 | 0.00 | 0.00 | 77 | 1014.5 |
| 20260507083553 | 52 | 345 | 0.9 | 1.7 | 0.00 | 0.00 | 0.00 | 78 | 1014.4 |
| 20260507082550 | 51 | 8 | 0.9 | 3.5 | 0.00 | 0.00 | 0.00 | 78 | 1014.5 |
| 20260507081547 | 51 | 57 | 0.9 | 3.5 | 0.00 | 0.00 | 0.00 | 79 | 1014.4 |
| 20260507080543 | 51 | 54 | 0.9 | 1.7 | 0.00 | 0.00 | 0.00 | 81 | 1014.2 |
| 20260507075546 | 52 | 42 | 1.7 | 5.2 | 0.00 | 0.00 | 0.00 | 79 | 1014.2 |
| 20260507074537 | 51 | 54 | 1.7 | 5.2 | 0.00 | 0.01 | 0.00 | 81 | 1014.1 |
| 20260507073534 | 51 | 3 | 1.7 | 3.5 | 0.00 | 0.01 | 0.00 | 82 | 1013.9 |
| 20260507072551 | 51 | 319 | 0.9 | 1.7 | 0.00 | 0.01 | 0.00 | 82 | 1014.0 |
| 20260507071527 | 50 | 19 | 0.9 | 3.5 | 0.00 | 0.01 | 0.00 | 82 | 1013.8 |
| 20260507070524 | 50 | 351 | 0.9 | 1.7 | 0.00 | 0.01 | 0.00 | 83 | 1013.8 |
| 20260507065521 | 49 | 338 | 0.0 | 1.7 | 0.00 | 0.01 | 0.00 | 85 | 1013.7 |
| 20260507064518 | 50 | 269 | 0.0 | 1.7 | 0.00 | 0.01 | 0.00 | 85 | 1013.7 |
| 20260507063515 | 50 | 232 | 0.0 | 3.5 | 0.00 | 0.01 | 0.00 | 86 | 1013.5 |
| 20260507062612 | 49 | 213 | 0.0 | 3.5 | 0.00 | 0.01 | 0.00 | 88 | 1013.6 |
| 20260507061609 | 48 | 0 | 0.0 | 1.7 | 0.00 | 0.02 | 0.00 | 91 | 1013.5 |
| 20260507060606 | 47 | 214 | 0.0 | 1.7 | 0.00 | 0.04 | 0.00 | 93 | 1013.4 |
| 20260507055643 | 46 | 203 | 0.0 | 1.7 | 0.00 | 0.05 | 0.00 | 94 | 1013.4 |
| 20260507054600 | 46 | 225 | 0.0 | 1.7 | 0.00 | 0.06 | 0.00 | 94 | 1013.2 |
| 20260507053557 | 46 | 0.0 | 1.7 | 0.00 | 0.06 | 0.00 | 95 | 1013.1 | |
| 20260507052554 | 45 | 0.0 | 0.0 | 0.00 | 0.06 | 0.00 | 95 | 1013.1 | |
| 20260507051551 | 45 | 0.0 | 1.7 | 0.00 | 0.06 | 0.00 | 94 | 1013.0 | |
| 20260507050607 | 45 | 0.0 | 1.7 | 0.00 | 0.06 | 0.00 | 94 | 1012.8 | |
| 20260507045544 | 45 | 0.0 | 0.0 | 0.00 | 0.06 | 0.00 | 95 | 1012.6 | |
| 20260507044542 | 45 | 0.0 | 1.7 | 0.00 | 0.06 | 0.00 | 95 | 1012.6 | |
| 20260507043558 | 45 | 0.0 | 1.7 | 0.00 | 0.06 | 0.00 | 94 | 1012.4 | |
| 20260507042534 | 45 | 270 | 0.0 | 1.7 | 0.00 | 0.07 | 0.00 | 94 | 1012.3 |
| 20260507041531 | 45 | 0 | 0.0 | 1.7 | 0.00 | 0.08 | 0.00 | 94 | 1012.2 |
| 20260507040528 | 45 | 349 | 0.0 | 1.7 | 0.00 | 0.11 | 0.00 | 94 | 1012.2 |
| 20260507035525 | 45 | 270 | 0.0 | 1.7 | 0.00 | 0.11 | 0.00 | 94 | 1012.1 |
| 20260507034542 | 45 | 214 | 0.0 | 1.7 | 0.00 | 0.11 | 0.00 | 94 | 1012.1 |
| 20260507033518 | 45 | 255 | 0.0 | 1.7 | 0.00 | 0.11 | 0.00 | 94 | 1012.1 |
| 20260507032515 | 44 | 0.0 | 1.7 | 0.00 | 0.11 | 0.00 | 94 | 1012.1 | |
| 20260507031613 | 44 | 0.0 | 1.7 | 0.00 | 0.11 | 0.00 | 94 | 1011.9 | |
| 20260507030609 | 45 | 203 | 0.9 | 1.7 | 0.00 | 0.11 | 0.00 | 94 | 1011.9 |
| 20260507025606 | 45 | 203 | 0.0 | 1.7 | 0.00 | 0.11 | 0.00 | 94 | 1011.8 |
| 20260507024603 | 45 | 225 | 0.0 | 1.7 | 0.00 | 0.11 | 0.00 | 94 | 1011.7 |
| 20260507023600 | 45 | 0.0 | 0.0 | 0.00 | 0.11 | 0.00 | 93 | 1011.7 | |
| 20260507022557 | 45 | 0.0 | 0.0 | 0.00 | 0.11 | 0.00 | 93 | 1011.7 | |
| 20260507021553 | 45 | 0.0 | 0.0 | 0.00 | 0.11 | 0.00 | 93 | 1011.7 | |
| 20260507020551 | 45 | 0.0 | 0.0 | 0.00 | 0.11 | 0.00 | 93 | 1011.7 | |
| 20260507015548 | 45 | 0.0 | 0.0 | 0.00 | 0.11 | 0.00 | 93 | 1011.7 | |
| 20260507014545 | 45 | 0.0 | 0.0 | 0.00 | 0.11 | 0.00 | 93 | 1011.6 | |
| 20260507013541 | 45 | 0.0 | 1.7 | 0.00 | 0.11 | 0.00 | 92 | 1011.6 | |
| 20260507012538 | 45 | 0.0 | 0.0 | 0.00 | 0.11 | 0.00 | 92 | 1011.5 | |
| 20260507011554 | 45 | 0.0 | 1.7 | 0.00 | 0.11 | 0.00 | 92 | 1011.5 | |
| 20260507010531 | 46 | 0.0 | 0.0 | 0.00 | 0.11 | 0.00 | 92 | 1011.4 | |
| 20260507005528 | 46 | 0.0 | 0.0 | 0.00 | 0.11 | 0.00 | 92 | 1011.4 | |
| 20260507004525 | 46 | 0.0 | 1.7 | 0.00 | 0.11 | 0.00 | 92 | 1011.3 | |
| 20260507003522 | 46 | 0.0 | 0.0 | 0.00 | 0.11 | 0.00 | 92 | 1011.2 | |
| 20260507002539 | 46 | 0.0 | 0.0 | 0.00 | 0.11 | 0.00 | 91 | 1011.2 | |
| 20260507001515 | 46 | 0.0 | 0.0 | 0.00 | 0.11 | 0.00 | 90 | 1011.3 | |
| 20260507000653 | 46 | 225 | 0.0 | 1.7 | 0.00 | 0.11 | 0.00 | 90 | 1011.3 |
| 20260506235609 | 47 | 0.0 | 0.0 | 0.00 | 0.11 | 0.00 | 90 | 1011.2 | |
| 20260506234606 | 47 | 0.0 | 0.0 | 0.00 | 0.11 | 0.00 | 89 | 1011.1 | |
| 20260506233603 | 47 | 0.0 | 1.7 | 0.00 | 0.11 | 0.00 | 90 | 1011.2 | |
| 20260506232600 | 47 | 0.0 | 1.7 | 0.00 | 0.11 | 0.00 | 91 | 1011.1 | |
| 20260506231557 | 47 | 0.0 | 0.0 | 0.00 | 0.11 | 0.00 | 91 | 1011.1 | |
| 20260506230554 | 47 | 0.0 | 0.0 | 0.00 | 0.11 | 0.00 | 91 | 1011.0 | |
| 20260506225551 | 47 | 0.0 | 0.0 | 0.00 | 0.11 | 0.00 | 91 | 1010.9 | |
| 20260506224548 | 47 | 0.0 | 0.0 | 0.00 | 0.11 | 0.00 | 91 | 1010.7 | |
| 20260506223604 | 47 | 0.0 | 0.0 | 0.00 | 0.11 | 0.00 | 91 | 1010.7 | |
| 20260506222542 | 48 | 0.0 | 1.7 | 0.00 | 0.11 | 0.00 | 90 | 1010.7 | |
| 20260506221538 | 48 | 0.0 | 0.0 | 0.00 | 0.11 | 0.00 | 90 | 1010.5 | |
| 20260506220615 | 48 | 0.0 | 0.0 | 0.00 | 0.11 | 0.00 | 90 | 1010.4 | |
| 20260506215532 | 48 | 0.0 | 1.7 | 0.00 | 0.11 | 0.11 | 89 | 1010.4 | |
| 20260506214609 | 48 | 203 | 0.0 | 1.7 | 0.00 | 0.11 | 0.11 | 88 | 1010.3 |
| 20260506213526 | 49 | 0.0 | 1.7 | 0.00 | 0.11 | 0.11 | 88 | 1010.2 | |
| 20260506212523 | 49 | 241 | 0.9 | 1.7 | 0.00 | 0.11 | 0.11 | 87 | 1010.2 |
| 20260506211519 | 49 | 203 | 0.0 | 1.7 | 0.00 | 0.11 | 0.11 | 87 | 1010.0 |
| 20260506210517 | 49 | 203 | 0.0 | 1.7 | 0.00 | 0.11 | 0.11 | 87 | 1010.0 |
| 20260506205613 | 49 | 0.0 | 1.7 | 0.00 | 0.11 | 0.11 | 87 | 1010.0 | |
| 20260506204610 | 49 | 0.0 | 1.7 | 0.00 | 0.11 | 0.11 | 87 | 1009.9 | |
| 20260506203607 | 49 | 0.0 | 0.0 | 0.00 | 0.11 | 0.11 | 87 | 1009.9 | |
| 20260506202604 | 49 | 0.0 | 0.0 | 0.00 | 0.11 | 0.11 | 85 | 1010.0 | |
| 20260506201601 | 49 | 0.0 | 0.0 | 0.00 | 0.11 | 0.11 | 85 | 1009.8 | |
| 20260506200558 | 49 | 0.0 | 0.0 | 0.00 | 0.12 | 0.11 | 85 | 1009.7 | |
| 20260506195555 | 49 | 0.0 | 0.0 | 0.00 | 0.13 | 0.11 | 85 | 1009.7 | |
| 20260506194552 | 49 | 0.0 | 0.0 | 0.00 | 0.17 | 0.11 | 85 | 1009.5 | |
| 20260506193549 | 50 | 0.0 | 0.0 | 0.00 | 0.22 | 0.11 | 86 | 1009.3 | |
| 20260506192546 | 50 | 0.0 | 0.0 | 0.00 | 0.27 | 0.11 | 83 | 1009.2 | |
| 20260506191543 | 50 | 0.0 | 1.7 | 0.00 | 0.30 | 0.11 | 81 | 1009.1 | |
| 20260506190539 | 50 | 45 | 0.0 | 1.7 | 0.00 | 0.33 | 0.11 | 80 | 1008.9 |
| 20260506185536 | 51 | 309 | 0.9 | 3.5 | 0.00 | 0.37 | 0.11 | 79 | 1008.8 |
| 20260506184533 | 51 | 347 | 0.9 | 3.5 | 0.00 | 0.37 | 0.11 | 79 | 1008.8 |
| 20260506183530 | 51 | 0.0 | 1.7 | 0.00 | 0.40 | 0.11 | 81 | 1008.7 | |
| 20260506182527 | 51 | 158 | 0.0 | 1.7 | 0.00 | 0.43 | 0.11 | 81 | 1008.5 |
| 20260506181524 | 52 | 35 | 0.9 | 3.5 | 0.00 | 0.45 | 0.11 | 80 | 1008.4 |
| 20260506180521 | 52 | 296 | 0.9 | 3.5 | 0.00 | 0.48 | 0.11 | 80 | 1008.3 |
| 20260506175518 | 52 | 21 | 1.7 | 3.5 | 0.00 | 0.48 | 0.11 | 81 | 1008.2 |
| 20260506174615 | 52 | 328 | 0.9 | 3.5 | 0.00 | 0.50 | 0.11 | 81 | 1008.1 |
| 20260506173612 | 52 | 46 | 0.9 | 3.5 | 0.00 | 0.52 | 0.11 | 82 | 1008.0 |
| 20260506172609 | 53 | 2 | 0.9 | 6.1 | 0.00 | 0.53 | 0.11 | 80 | 1007.9 |
| 20260506171606 | 53 | 347 | 1.7 | 3.5 | 0.00 | 0.53 | 0.11 | 79 | 1007.8 |
| 20260506170603 | 53 | 23 | 1.7 | 6.1 | 0.00 | 0.53 | 0.11 | 80 | 1007.8 |
| 20260506165559 | 53 | 14 | 0.9 | 5.2 | 0.00 | 0.53 | 0.11 | 81 | 1007.8 |
| 20260506164557 | 53 | 358 | 0.9 | 3.5 | 0.00 | 0.53 | 0.11 | 79 | 1007.8 |
| 20260506163553 | 53 | 350 | 0.9 | 3.5 | 0.00 | 0.53 | 0.11 | 79 | 1007.8 |
| 20260506162550 | 53 | 342 | 0.0 | 1.7 | 0.00 | 0.53 | 0.11 | 81 | 1007.7 |
| 20260506161547 | 53 | 15 | 0.9 | 3.5 | 0.00 | 0.53 | 0.11 | 80 | 1007.7 |
| 20260506160544 | 54 | 22 | 1.7 | 5.2 | 0.00 | 0.53 | 0.11 | 79 | 1007.7 |
| 20260506155541 | 54 | 345 | 0.9 | 1.7 | 0.00 | 0.53 | 0.11 | 80 | 1007.8 |
| 20260506154537 | 53 | 359 | 0.9 | 3.5 | 0.00 | 0.53 | 0.11 | 82 | 1007.6 |
| 20260506153534 | 55 | 11 | 1.7 | 6.1 | 0.00 | 0.54 | 0.11 | 77 | 1007.6 |
| 20260506152531 | 55 | 58 | 1.7 | 5.2 | 0.00 | 0.54 | 0.11 | 76 | 1007.4 |
| 20260506151528 | 54 | 16 | 1.7 | 3.5 | 0.00 | 0.56 | 0.11 | 80 | 1007.3 |
| 20260506150525 | 54 | 320 | 0.9 | 6.1 | 0.00 | 0.56 | 0.11 | 80 | 1007.3 |
| 20260506145522 | 54 | 329 | 0.9 | 3.5 | 0.00 | 0.57 | 0.11 | 81 | 1007.2 |
| 20260506144559 | 53 | 349 | 0.9 | 3.5 | 0.00 | 0.57 | 0.11 | 83 | 1007.2 |
| 20260506143516 | 54 | 248 | 2.6 | 5.2 | 0.00 | 0.57 | 0.11 | 80 | 1007.1 |
| 20260506142613 | 55 | 352 | 0.9 | 1.7 | 0.00 | 0.58 | 0.11 | 82 | 1007.1 |
| 20260506141610 | 53 | 290 | 0.9 | 3.5 | 0.00 | 0.58 | 0.11 | 84 | 1007.3 |
| 20260506140607 | 53 | 321 | 0.9 | 3.5 | 0.00 | 0.59 | 0.11 | 85 | 1007.4 |
| 20260506135623 | 53 | 19 | 1.7 | 3.5 | 0.00 | 0.59 | 0.11 | 85 | 1007.4 |
| 20260506134600 | 53 | 17 | 1.7 | 3.5 | 0.00 | 0.60 | 0.11 | 85 | 1007.4 |
| 20260506133557 | 53 | 345 | 0.0 | 1.7 | 0.00 | 0.60 | 0.11 | 86 | 1007.4 |
| 20260506132554 | 53 | 342 | 0.9 | 1.7 | 0.00 | 0.61 | 0.11 | 85 | 1007.4 |
| 20260506131611 | 54 | 301 | 0.9 | 1.7 | 0.00 | 0.61 | 0.11 | 84 | 1007.2 |
| 20260506130548 | 54 | 291 | 0.9 | 3.5 | 0.00 | 0.63 | 0.11 | 83 | 1007.2 |
| 20260506125545 | 54 | 315 | 0.9 | 3.5 | 0.00 | 0.63 | 0.11 | 86 | 1007.0 |
| 20260506124601 | 53 | 318 | 0.9 | 3.5 | 0.00 | 0.64 | 0.11 | 85 | 1007.0 |
| 20260506123538 | 53 | 286 | 0.9 | 1.7 | 0.00 | 0.65 | 0.11 | 86 | 1006.9 |
| 20260506122535 | 54 | 328 | 0.9 | 1.7 | 0.00 | 0.67 | 0.11 | 85 | 1006.9 |
| 20260506121612 | 54 | 309 | 0.9 | 3.5 | 0.00 | 0.70 | 0.11 | 84 | 1006.7 |
| 20260506120529 | 54 | 5 | 0.9 | 3.5 | 0.00 | 0.71 | 0.11 | 85 | 1006.6 |
| 20260506115526 | 53 | 332 | 0.9 | 3.5 | 0.00 | 0.72 | 0.11 | 85 | 1006.6 |
| 20260506114522 | 54 | 54 | 0.9 | 3.5 | 0.00 | 0.72 | 0.11 | 86 | 1006.6 |
| 20260506113520 | 53 | 336 | 0.9 | 3.5 | 0.00 | 0.72 | 0.11 | 85 | 1006.4 |